Shawbury, United Kingdom

5:41 AM GMT on February 21, 2018 (GMT +0000)
Shawbury Air Base

Weather History for EGOS - August, 2013

Change the Weather History Date:

Wednesday, August 7, 2013

  Actual Average Record
Temperature  
Mean Temperature 59 °F -  
Max Temperature 69 °F 65 °F 80 °F (1997)
Min Temperature 49 °F 50 °F 42 °F (2015)
Degree Days  
Heating Degree Days 6    
Growing Degree Days 9 (Base 50)    
Moisture  
Dew Point 51 °F    
Average Humidity 69    
Maximum Humidity 94    
Minimum Humidity 39    
Precipitation  
Precipitation 0.00 in - - ()
Sea Level Pressure  
Sea Level Pressure 29.98 in    
Wind  
Wind Speed 4 mph ()    
Max Wind Speed 8 mph    
Max Gust Speed -    
Visibility 7.9 miles    
Events      
Averages and records for this station are not official NWS values.
T = Trace of Precipitation, MM = Missing Value Source: Averaged Metar Reports

Daily Weather History Graph

Daily Weather History Graph

Search for Another Location

Airport or City:

Trip Planner

Search our weather history database for the weather conditions in past years. The results will help you decide how hot, cold, wet, or windy it might be!

Date:

Astronomy

Aug. 07, 2013 Rise Set
Actual Time 5:39 AM BST 8:52 PM BST
Civil Twilight 4:58 AM BST 9:33 PM BST
Nautical Twilight 4:03 AM BST 10:27 PM BST
Astronomical Twilight 2:48 AM BST 11:40 PM BST
Moon 6:27 AM BST (8/7) 8:33 PM BST (8/7)
Length of Visible Light 16h 35m
Length of Day
15h 13m
New Moon, 0% of the Moon is Illuminated
Aug 7
New Moon
Aug 14
First Quarter
Aug 21
Full
Aug 28
Last Quarter
Sep 5
New

Hourly Weather History & Observations

Time (BST) Temp. Dew Point Humidity Pressure Visibility Wind Dir Wind Speed Gust Speed Precip Events Conditions
12:50 AM 53 °F 49 °F 80% 29.97 in 11 mi NE 4.6 mph - -   Mostly Cloudy
12:50 AM 53.6 °F 48.2 °F 82% 29.95 in 6.2 mi NE 4.6 mph - N/A   Mostly Cloudy
1:50 AM 53.6 °F 48.2 °F 82% 29.95 in 6.2 mi East 4.6 mph - N/A   Partly Cloudy
2:50 AM 50.0 °F 48.2 °F 94% 29.95 in 6.2 mi NNE 2.3 mph - N/A   Unknown
3:50 AM 51 °F 48 °F 84% 29.98 in 9 mi ENE 3.5 mph - -   Scattered Clouds
3:50 AM 51.8 °F 48.2 °F 88% 29.98 in 6.2 mi ENE 3.5 mph - N/A   Mostly Cloudy
4:50 AM 53.6 °F 48.2 °F 82% 29.98 in 6.2 mi NE 3.5 mph - N/A   Overcast
5:50 AM 53.6 °F 48.2 °F 82% 29.95 in 6.2 mi NNE 3.5 mph - N/A   Mostly Cloudy
6:50 AM 55 °F 49 °F 76% 29.96 in 9 mi NNE 3.5 mph - -   Mostly Cloudy
6:50 AM 55.4 °F 50.0 °F 82% 29.95 in - NNE 3.5 mph - N/A   Clear
7:50 AM 55.4 °F 51.8 °F 88% 29.95 in - NNW 2.3 mph - N/A   Clear
8:50 AM 57.2 °F 51.8 °F 82% 29.98 in - NE 2.3 mph - N/A   Clear
9:50 AM 64 °F 53 °F 59% 29.98 in 9 mi ENE 3.5 mph - -   Mostly Cloudy
9:50 AM 64.4 °F 53.6 °F 68% 29.98 in - ENE 3.5 mph - N/A   Clear
10:50 AM 66.2 °F 57.2 °F 73% 29.98 in 6.2 mi ESE 6.9 mph - N/A   Scattered Clouds
11:50 AM 64.4 °F 55.4 °F 73% 29.98 in 6.2 mi SSW 5.8 mph - N/A   Mostly Cloudy
12:50 PM 67 °F 51 °F 46% 29.99 in 16 mi NW 2.3 mph - -   Partly Cloudy
12:50 PM 66.2 °F 51.8 °F 60% 29.98 in 6.2 mi NW 2.3 mph - N/A   Mostly Cloudy
1:50 PM 66.2 °F 51.8 °F 60% 29.98 in 6.2 mi SW 3.5 mph - N/A   Scattered Clouds
2:50 PM 68.0 °F 53.6 °F 60% 29.98 in 6.2 mi SW 3.5 mph - N/A   Scattered Clouds
3:50 PM 68 °F 49 °F 39% 29.99 in 19 mi North 4.6 mph - -   Partly Cloudy
3:50 PM 68.0 °F 48.2 °F 49% 29.98 in 6.2 mi North 4.6 mph - N/A   Scattered Clouds
4:50 PM 68.0 °F 48.2 °F 49% 29.98 in 6.2 mi NNE 4.6 mph - N/A   Scattered Clouds
5:50 PM 69.8 °F 48.2 °F 46% 29.98 in 6.2 mi NNE 6.9 mph - N/A   Partly Cloudy
6:50 PM 69 °F 50 °F 39% 29.99 in 12 mi NNE 5.8 mph - -   Scattered Clouds
6:50 PM 68.0 °F 50.0 °F 52% 29.98 in 6.2 mi NNE 5.8 mph - N/A   Partly Cloudy
7:50 PM 64.4 °F 53.6 °F 68% 30.01 in 6.2 mi North 2.3 mph - N/A   Scattered Clouds
8:50 PM 62.6 °F 53.6 °F 72% 30.01 in 6.2 mi NE 2.3 mph - N/A   Mostly Cloudy
9:50 PM 59 °F 51 °F 69% 30.04 in 12 mi NW 6.9 mph - -   Partly Cloudy
9:50 PM 59.0 °F 51.8 °F 77% 30.04 in 6.2 mi NW 6.9 mph - N/A   Scattered Clouds
10:50 PM 59.0 °F 50.0 °F 72% 30.04 in 6.2 mi NNW 5.8 mph - N/A   Partly Cloudy
11:50 PM 57.2 °F 50.0 °F 77% 30.06 in 6.2 mi NNW 8.1 mph - N/A   Unknown